Location: Camaret
(48.2753°N, 4.5961°W)
Time: 01:23:54
(UTC+00:00)

CORIOLIS - Pass Details

Date: 29 October 2020
Orbit: 819 x 838 km, 98.7° (Epoch: 26 November)

Event Time Altitude Azimuth Distance (km) Brightness Sun altitude
Rises 17:28:35 0° 157° (SSE) 3,337 7.2 -4.8°
Reaches altitude 10° 17:30:55 10° 155° (SSE) 2,410 6.5 -5.2°
Maximum altitude 17:36:14 72° 72° (ENE) 866 4.1 -6.0°
Drops below altitude 10° 17:41:35 10° 349° (N) 2,434 6.6 -6.9°
Sets 17:43:57 0° 348° (NNW) 3,374 7.3 -7.3°
